�N����,����,�~����,�C��,���x,�C��,����,���ϕ���,�ő�u�ԕ���,�ő厞����,���˗�,�I�_���x,�n�����x,�ő啗���N��,DTYPE
"20/03/23","00:10",0.0,11.5,80.3,1007.4,337.9,1.7,3.6,323.4,0.00,8.3,12.3,"00:03:36",1
"20/03/23","00:20",0.0,11.3,80.0,1007.6,334.1,2.0,3.1,355.2,0.00,8.0,12.3,"00:11:04",1
"20/03/23","00:30",0.0,11.3,79.9,1007.6,338.1,1.7,3.2,339.0,0.00,8.0,12.1,"00:26:56",1
"20/03/23","00:40",0.0,11.0,80.0,1007.4,326.0,1.7,3.1,341.5,0.00,7.7,12.2,"00:39:44",1
"20/03/23","00:50",0.0,11.2,79.6,1007.1,328.6,3.5,5.0,344.3,0.00,7.8,12.2,"00:43:26",1
"20/03/23","01:00",0.0,11.0,78.9,1007.6,332.7,1.8,2.9,343.9,0.00,7.5,12.0,"00:50:48",1
"20/03/23","01:10",0.0,10.6,79.2,1007.6,333.2,2.2,4.0,333.2,0.00,7.2,12.1,"01:08:16",1
"20/03/23","01:20",0.0,10.7,79.2,1007.6,331.6,3.0,5.6,333.0,0.00,7.3,11.7,"01:12:40",1
"20/03/23","01:30",0.0,10.4,79.0,1007.6,332.4,2.5,3.7,333.3,0.00,7.0,11.9,"01:28:42",1
"20/03/23","01:40",0.0,10.5,78.7,1007.4,329.3,3.1,5.8,328.2,0.00,7.0,11.8,"01:38:22",1
"20/03/23","01:50",0.0,10.4,78.3,1007.1,332.0,2.8,4.7,346.8,0.00,6.8,11.9,"01:46:50",1
"20/03/23","02:00",0.0,9.9,78.3,1006.9,329.9,1.8,2.8,332.7,0.00,6.3,11.9,"01:54:02",1
"20/03/23","02:10",0.0,9.3,79.2,1007.1,325.7,2.2,3.6,327.8,0.00,5.9,11.7,"02:09:46",1
"20/03/23","02:20",0.0,9.3,80.3,1007.4,330.6,2.8,5.4,335.1,0.00,6.1,11.7,"02:14:48",1
"20/03/23","02:30",0.0,9.3,80.8,1007.1,318.3,2.7,4.0,332.7,0.00,6.2,11.3,"02:26:08",1
"20/03/23","02:40",0.0,9.2,81.1,1006.7,330.5,3.2,4.5,321.4,0.00,6.2,11.4,"02:31:20",1
"20/03/23","02:50",0.0,9.2,81.4,1006.9,332.5,2.5,4.1,338.7,0.00,6.2,11.5,"02:44:08",1
"20/03/23","03:00",0.0,9.1,81.4,1007.4,328.8,3.0,5.9,318.2,0.00,6.1,11.5,"02:54:24",1
"20/03/23","03:10",0.0,9.0,81.1,1007.4,324.8,2.3,3.4,336.9,0.00,6.0,11.3,"03:02:08",1
"20/03/23","03:20",0.0,8.9,81.0,1007.1,331.0,2.1,3.9,312.0,0.00,5.9,11.4,"03:19:12",1
"20/03/23","03:30",0.0,8.8,80.8,1006.9,332.3,1.7,2.6,346.8,0.00,5.7,11.4,"03:23:04",1
"20/03/23","03:40",0.0,8.2,80.8,1006.9,301.7,1.8,2.9,332.3,0.00,5.1,11.3,"03:36:00",1
"20/03/23","03:50",0.0,7.9,81.5,1006.7,325.5,2.6,3.6,325.5,0.00,5.0,11.3,"03:40:02",1
"20/03/23","04:00",0.0,7.7,82.1,1006.7,318.4,2.1,3.4,325.5,0.00,4.9,11.0,"03:50:40",1
"20/03/23","04:10",0.0,7.7,82.7,1006.7,302.4,2.7,4.4,338.7,0.00,5.0,11.2,"04:00:16",1
"20/03/23","04:20",0.0,7.5,83.0,1006.4,325.1,2.5,4.1,339.5,0.00,4.8,11.1,"04:10:32",1
"20/03/23","04:30",0.0,7.5,83.5,1006.7,284.3,1.8,3.1,299.8,0.00,4.9,11.0,"04:26:48",1
"20/03/23","04:40",0.0,7.5,83.7,1006.9,323.1,1.8,2.7,316.6,0.00,5.0,10.9,"04:36:16",1
"20/03/23","04:50",0.0,7.1,84.0,1006.4,329.8,1.8,3.5,332.8,0.00,4.6,10.7,"04:40:02",1
"20/03/23","05:00",0.0,6.8,84.6,1006.7,305.1,2.0,2.5,310.3,0.00,4.4,10.7,"04:52:40",1
"20/03/23","05:10",0.0,7.3,84.7,1006.4,308.5,1.3,2.9,314.2,0.00,4.9,10.7,"05:04:32",1
"20/03/23","05:20",0.0,7.0,84.7,1006.7,322.9,2.0,3.1,333.0,0.00,4.6,10.7,"05:15:12",1
"20/03/23","05:30",0.0,6.7,85.2,1006.7,300.4,2.5,3.1,319.7,0.00,4.4,10.7,"05:21:52",1
"20/03/23","05:40",0.0,6.8,85.4,1007.1,305.1,2.3,3.9,335.9,0.00,4.6,10.6,"05:39:36",1
"20/03/23","05:50",0.0,6.6,85.6,1006.9,310.9,2.5,4.1,327.0,0.00,4.4,10.6,"05:40:24",1
"20/03/23","06:00",0.0,6.5,85.9,1006.9,310.8,2.3,3.6,333.7,0.00,4.4,10.4,"05:58:56",1
"20/03/23","06:10",0.0,6.4,86.2,1007.4,317.7,2.5,3.5,335.2,0.00,4.3,10.4,"06:00:40",1
"20/03/23","06:20",0.0,6.2,86.5,1007.1,321.1,2.1,2.9,319.3,0.00,4.2,10.5,"06:11:28",1
"20/03/23","06:30",0.0,6.2,86.8,1007.4,310.4,2.1,2.9,329.0,0.00,4.2,10.3,"06:23:46",1
"20/03/23","06:40",0.0,6.1,87.0,1007.4,326.2,2.2,3.6,337.9,0.00,4.1,10.2,"06:31:28",1
"20/03/23","06:50",0.0,6.0,87.3,1007.4,297.3,2.0,2.6,319.3,0.00,4.1,10.3,"06:43:04",1
"20/03/23","07:00",0.0,6.4,87.4,1007.6,317.3,1.8,2.9,330.3,0.00,4.5,10.3,"06:52:32",1
"20/03/23","07:10",0.0,6.4,87.4,1007.6,328.6,2.2,3.1,319.6,0.00,4.5,10.1,"07:01:12",1
"20/03/23","07:20",0.0,6.9,87.5,1008.1,338.3,1.7,3.6,341.5,0.01,5.0,10.2,"07:18:16",1
"20/03/23","07:30",0.0,7.7,87.2,1008.1,311.2,1.8,2.7,322.8,0.02,5.7,10.3,"07:25:46",1
"20/03/23","07:40",0.0,8.2,86.5,1008.3,277.9,1.5,3.1,246.4,0.03,6.1,10.2,"07:35:52",1
"20/03/23","07:50",0.0,8.8,84.1,1008.6,282.6,2.0,3.2,324.6,0.05,6.3,10.2,"07:46:00",1
"20/03/23","08:00",0.0,9.9,81.5,1009.0,296.7,1.1,2.7,266.2,0.06,6.9,10.3,"07:50:40",1
"20/03/23","08:10",0.0,10.1,76.3,1009.3,280.5,1.3,3.9,338.6,0.09,6.2,10.5,"08:07:28",1
"20/03/23","08:20",0.0,10.1,70.8,1009.5,331.0,2.3,4.4,293.4,0.11,5.1,10.4,"08:17:44",1
"20/03/23","08:30",0.0,10.4,67.5,1009.3,348.0,2.3,5.9,347.8,0.14,4.7,10.6,"08:22:16",1
"20/03/23","08:40",0.0,10.6,65.9,1009.7,323.3,2.5,4.1,311.7,0.16,4.5,10.5,"08:33:20",1
"20/03/23","08:50",0.0,11.1,64.0,1009.5,346.2,2.0,4.0,328.0,0.19,4.6,10.5,"08:48:40",1
"20/03/23","09:00",0.0,11.4,61.6,1009.7,346.3,2.1,4.1,337.4,0.22,4.3,10.9,"08:51:12",1
"20/03/23","09:10",0.0,12.3,60.9,1009.5,338.0,1.1,3.2,317.1,0.25,5.0,10.9,"09:04:00",1
"20/03/23","09:20",0.0,12.2,58.3,1009.7,307.6,2.1,4.8,309.6,0.28,4.3,11.0,"09:19:44",1
"20/03/23","09:30",0.0,11.8,57.4,1009.5,325.8,3.5,7.3,336.9,0.31,3.7,11.2,"09:21:52",1
"20/03/23","09:40",0.0,12.5,54.7,1009.5,345.7,1.6,4.3,0.8,0.34,3.7,11.4,"09:37:44",1
"20/03/23","09:50",0.0,12.1,52.3,1009.5,344.4,3.5,6.5,328.5,0.37,2.7,11.3,"09:42:00",1
"20/03/23","10:00",0.0,11.9,53.1,1010.0,331.5,4.6,8.7,340.8,0.39,2.7,11.7,"09:52:32",1
"20/03/23","10:10",0.0,12.1,51.6,1010.0,347.3,4.0,8.2,338.5,0.42,2.5,11.9,"10:07:04",1
"20/03/23","10:20",0.0,12.3,49.7,1009.7,335.8,4.0,6.6,324.5,0.44,2.1,12.0,"10:11:36",1
"20/03/23","10:30",0.0,12.9,49.9,1009.7,345.3,3.0,7.0,343.3,0.46,2.7,12.3,"10:28:00",1
"20/03/23","10:40",0.0,13.0,49.2,1009.7,339.8,3.7,8.5,333.5,0.47,2.6,12.3,"10:36:24",1
"20/03/23","10:50",0.0,13.1,48.8,1009.3,334.9,3.7,7.0,327.1,0.50,2.6,12.3,"10:43:28",1
"20/03/23","11:00",0.0,13.1,45.9,1009.5,334.8,4.1,7.3,340.7,0.51,1.8,12.6,"10:57:12",1
"20/03/23","11:10",0.0,13.5,43.5,1009.3,342.2,3.2,7.2,355.8,0.53,1.4,12.7,"11:09:28",1
"20/03/23","11:20",0.0,13.3,43.8,1009.3,339.1,4.4,8.5,340.6,0.54,1.3,13.0,"11:15:28",1
"20/03/23","11:30",0.0,13.6,43.7,1009.3,326.9,4.9,10.4,335.2,0.56,1.5,13.1,"11:27:36",1
"20/03/23","11:40",0.0,14.0,42.9,1009.3,347.0,3.5,8.9,323.4,0.57,1.6,13.3,"11:37:20",1
"20/03/23","11:50",0.0,13.9,42.2,1009.5,342.9,4.1,6.5,329.3,0.58,1.3,13.4,"11:49:20",1
"20/03/23","12:00",0.0,14.3,40.5,1009.0,341.8,3.2,6.7,333.0,0.58,1.1,13.7,"11:50:08",1
"20/03/23","12:10",0.0,14.5,39.2,1009.0,352.6,2.8,5.4,344.4,0.59,0.8,13.8,"12:03:44",1
"20/03/23","12:20",0.0,14.5,39.8,1008.8,348.5,3.6,8.8,333.1,0.57,1.0,14.1,"12:13:12",1
"20/03/23","12:30",0.0,14.9,38.9,1008.8,337.3,3.5,6.4,335.4,0.60,1.1,14.3,"12:20:40",1
"20/03/23","12:40",0.0,14.9,36.8,1008.6,5.8,2.8,6.3,354.5,0.60,0.3,14.6,"12:34:48",1
"20/03/23","12:50",0.0,15.2,35.8,1008.3,357.0,2.7,6.2,336.8,0.60,0.2,14.6,"12:46:40",1
"20/03/23","13:00",0.0,15.7,37.0,1008.3,357.1,2.2,6.4,350.8,0.60,1.1,14.7,"12:59:52",1
"20/03/23","13:10",0.0,15.6,35.5,1007.8,342.3,2.6,5.0,357.7,0.60,0.4,15.0,"13:02:40",1
"20/03/23","13:20",0.0,15.7,34.2,1007.4,344.3,3.1,7.8,350.0,0.60,0.0,15.2,"13:16:32",1
"20/03/23","13:30",0.0,16.5,33.2,1007.1,317.2,2.7,6.3,337.7,0.59,0.3,15.3,"13:27:28",1
"20/03/23","13:40",0.0,16.0,30.5,1007.4,330.1,4.1,8.1,334.7,0.59,-1.3,15.6,"13:30:32",1
"20/03/23","13:50",0.0,15.8,31.4,1007.1,337.2,4.2,8.3,325.3,0.58,-1.1,15.7,"13:40:48",1
"20/03/23","14:00",0.0,15.6,31.4,1007.4,330.9,3.7,6.7,336.1,0.57,-1.2,15.8,"13:53:20",1
"20/03/23","14:10",0.0,16.1,31.0,1006.9,305.9,3.7,7.5,317.9,0.57,-1.0,15.9,"14:02:24",1
"20/03/23","14:20",0.0,15.4,30.9,1006.7,291.8,4.4,7.2,319.3,0.55,-1.6,16.2,"14:18:40",1
"20/03/23","14:30",0.0,15.6,31.6,1006.9,293.2,4.6,9.6,331.7,0.54,-1.2,16.1,"14:28:00",1
"20/03/23","14:40",0.0,15.8,30.7,1006.9,299.1,4.0,9.1,2.3,0.52,-1.4,16.0,"14:34:08",1
"20/03/23","14:50",0.0,15.4,30.9,1006.9,324.5,4.7,8.9,344.5,0.50,-1.6,16.0,"14:46:48",1
"20/03/23","15:00",0.0,15.7,31.0,1006.7,336.0,4.2,8.0,332.0,0.48,-1.3,16.2,"14:52:24",1
"20/03/23","15:10",0.0,15.9,32.5,1006.4,331.1,4.1,7.2,341.5,0.46,-0.5,16.2,"15:02:24",1
"20/03/23","15:20",0.0,15.8,33.8,1006.4,340.3,4.6,9.4,334.9,0.44,-0.1,16.4,"15:13:12",1
"20/03/23","15:30",0.0,15.9,33.0,1006.2,302.6,4.2,7.0,342.5,0.43,-0.3,16.1,"15:22:00",1
"20/03/23","15:40",0.0,15.8,33.0,1006.2,326.3,4.1,8.6,321.7,0.40,-0.4,16.3,"15:33:12",1
"20/03/23","15:50",0.0,15.7,33.5,1006.7,329.0,4.2,6.7,340.1,0.38,-0.3,16.2,"15:47:28",1
"20/03/23","16:00",0.0,15.6,34.2,1006.2,341.2,3.9,6.8,343.9,0.35,-0.1,15.9,"15:54:00",1
"20/03/23","16:10",0.0,15.2,31.8,1006.2,334.8,4.6,8.1,336.1,0.33,-1.4,16.1,"16:05:44",1
"20/03/23","16:20",0.0,15.1,32.8,1006.2,327.9,4.4,7.9,308.7,0.30,-1.1,16.3,"16:16:24",1
"20/03/23","16:30",0.0,15.0,33.4,1006.4,330.7,5.1,10.6,333.2,0.27,-0.9,15.9,"16:21:30",1
"20/03/23","16:40",0.0,14.7,32.5,1006.2,338.0,4.9,8.7,325.5,0.25,-1.6,15.9,"16:33:52",1
"20/03/23","16:50",0.0,14.6,32.9,1006.7,338.1,4.6,7.9,338.2,0.22,-1.5,15.8,"16:46:24",1
"20/03/23","17:00",0.0,14.5,33.5,1006.2,331.8,4.6,8.2,339.4,0.19,-1.3,15.7,"16:53:36",1
"20/03/23","17:10",0.0,14.6,33.9,1006.7,330.8,4.1,8.2,329.2,0.16,-1.1,15.5,"17:09:52",1
"20/03/23","17:20",0.0,14.3,33.4,1006.4,340.5,3.9,8.9,326.0,0.13,-1.5,15.5,"17:10:32",1
"20/03/23","17:30",0.0,14.0,33.1,1006.4,348.5,3.9,8.1,349.9,0.10,-1.9,15.3,"17:22:08",1
"20/03/23","17:40",0.0,13.7,33.5,1007.1,346.4,4.0,9.4,341.0,0.08,-2.0,15.2,"17:38:10",1
"20/03/23","17:50",0.0,13.5,35.1,1007.4,342.7,3.9,8.8,335.6,0.06,-1.6,15.1,"17:47:28",1
"20/03/23","18:00",0.0,13.3,36.1,1007.6,351.5,2.8,5.5,28.2,0.04,-1.4,14.8,"17:50:56",1
"20/03/23","18:10",0.0,12.9,36.7,1007.6,349.8,3.6,7.0,27.7,0.02,-1.5,14.6,"18:01:46",1
"20/03/23","18:20",0.0,12.3,38.3,1007.6,337.0,4.0,7.1,341.7,0.01,-1.5,14.7,"18:10:08",1
"20/03/23","18:30",0.0,11.9,40.1,1007.8,338.3,3.0,5.7,335.4,0.00,-1.2,14.4,"18:23:24",1
"20/03/23","18:40",0.0,11.5,41.8,1008.1,341.6,3.7,6.8,350.3,0.00,-1.0,14.4,"18:31:52",1
"20/03/23","18:50",0.0,11.2,43.6,1008.6,339.2,3.6,6.3,340.9,0.00,-0.7,14.1,"18:48:36",1
"20/03/23","19:00",0.0,11.2,44.1,1008.6,337.4,4.2,7.4,336.2,0.00,-0.5,13.9,"18:57:20",1
"20/03/23","19:10",0.0,10.9,46.2,1008.6,334.9,3.4,5.8,347.5,0.00,-0.2,13.7,"19:02:48",1
"20/03/23","19:20",0.0,10.8,50.0,1009.3,343.4,3.9,6.4,346.2,0.00,0.8,13.7,"19:17:16",1
"20/03/23","19:30",0.0,9.9,56.5,1009.5,345.6,4.1,7.9,325.8,0.00,1.7,13.5,"19:27:24",1
"20/03/23","19:40",0.0,9.4,61.8,1009.7,353.5,4.0,8.5,30.8,0.00,2.5,13.4,"19:31:36",1
"20/03/23","19:50",0.0,8.7,67.0,1009.7,4.0,4.6,5.7,8.0,0.00,3.0,13.3,"19:47:22",1
"20/03/23","20:00",0.0,8.3,69.5,1009.7,347.6,3.4,5.2,338.8,0.00,3.1,13.2,"19:56:24",1
"20/03/23","20:10",0.0,8.1,70.9,1009.5,340.7,2.3,4.2,351.3,0.00,3.2,13.2,"20:02:04",1
"20/03/23","20:20",0.0,7.8,72.1,1009.7,332.5,2.5,4.1,338.8,0.00,3.1,12.9,"20:12:52",1
"20/03/23","20:30",0.0,7.7,73.1,1009.7,335.8,1.7,2.7,336.5,0.00,3.2,12.6,"20:20:24",1
"20/03/23","20:40",0.0,7.6,74.1,1010.0,320.4,2.5,5.0,324.2,0.00,3.3,12.7,"20:39:00",1
"20/03/23","20:50",0.0,8.0,74.3,1009.7,329.2,3.2,5.6,334.4,0.00,3.8,12.5,"20:45:22",1
"20/03/23","21:00",0.0,8.2,73.9,1009.7,321.7,3.4,5.8,343.9,0.00,3.9,12.7,"20:54:08",1
"20/03/23","21:10",0.0,8.2,73.3,1010.2,325.3,3.4,5.7,342.4,0.00,3.8,12.4,"21:05:54",1
"20/03/23","21:20",0.0,8.1,73.0,1010.2,330.6,2.5,4.4,323.6,0.00,3.6,12.4,"21:12:32",1
"20/03/23","21:30",0.0,7.9,72.9,1010.4,331.4,2.5,4.3,327.0,0.00,3.4,12.3,"21:23:12",1
"20/03/23","21:40",0.0,7.6,73.2,1010.7,319.1,2.1,3.3,337.9,0.00,3.2,12.2,"21:32:40",1
"20/03/23","21:50",0.0,7.8,74.1,1010.4,306.3,2.7,4.3,318.9,0.00,3.5,12.2,"21:41:22",1
"20/03/23","22:00",0.0,7.6,74.9,1010.2,288.4,2.7,4.5,304.1,0.00,3.5,12.1,"21:59:00",1
"20/03/23","22:10",0.0,7.5,75.6,1009.7,311.8,2.7,5.0,326.4,0.00,3.5,12.1,"22:01:30",1
"20/03/23","22:20",0.0,7.4,76.2,1010.2,323.6,3.9,4.9,356.4,0.00,3.5,11.8,"22:10:24",1
"20/03/23","22:30",0.0,7.4,76.4,1010.0,315.8,3.2,4.9,334.6,0.00,3.6,11.9,"22:20:16",1
"20/03/23","22:40",0.0,7.2,76.6,1010.7,329.3,1.6,2.6,316.4,0.00,3.4,11.8,"22:32:32",1
"20/03/23","22:50",0.0,6.7,77.0,1010.7,324.8,1.2,3.5,337.6,0.00,3.0,11.7,"22:44:00",1
"20/03/23","23:00",0.0,6.3,77.6,1010.7,285.8,1.1,2.0,318.7,0.00,2.7,11.6,"22:55:56",1
"20/03/23","23:10",0.0,6.2,78.3,1010.7,325.6,1.3,2.6,322.5,0.00,2.7,11.4,"23:02:52",1
"20/03/23","23:20",0.0,6.0,79.3,1010.0,330.6,1.7,3.1,333.4,0.00,2.7,11.4,"23:10:38",1
"20/03/23","23:30",0.0,5.7,80.3,1010.7,315.5,1.5,2.1,312.9,0.00,2.6,11.3,"23:21:04",1
"20/03/23","23:40",0.0,5.3,81.4,1010.7,332.8,1.6,2.5,330.9,0.00,2.4,11.4,"23:35:46",1
"20/03/23","23:50",0.0,5.3,82.3,1010.4,335.0,1.5,2.7,332.8,0.00,2.6,11.2,"23:48:20",1
"20/03/23","24:00",0.0,4.9,83.0,1010.4,322.7,1.6,2.6,317.0,0.00,2.3,11.2,"23:51:12",1
